Back to catalog

FREGAT DEB

LostUNKNOWN
NORAD 46003·DEBRIS·🇷🇺 Russia

Launched Jul 18, 2011 from Baikonur Cosmodrome

Loading…

Next Passes (next 24 hours)

TLE

StaleSource: Space-Track

Epoch: Mar 31, 2022, 07:31 UTC

1 46003U 11037HE  22090.31319888  .00874678  00000-0  52057+0 0  9997
2 46003  51.0371 135.6602 1634310 312.6325  34.7528 11.49062609 69333

Track FREGAT DEB in real time with AllMySat

Download on the App Store